| time (UTC) | temp F | wind direction | speed knots | gust knots | rain 1hr in | rain 24hr in | rain mn in | humidity % | barometer mb |
| 20260507031958 | 41 | 220 | 10.4 | 20.9 | 0.00 | 0.00 | 0.00 | 99 | |
| 20260507021957 | 41 | 250 | 7.8 | 0.0 | 0.00 | 0.00 | 0.00 | 99 | |
| 20260507012058 | 41 | 270 | 12.2 | 26.9 | 0.00 | 0.00 | 0.00 | 93 | |
| 20260507001958 | 41 | 250 | 15.6 | 25.2 | 0.00 | 0.00 | 0.00 | 99 | |
| 20260506231958 | 41 | 240 | 15.6 | 31.3 | 0.00 | 0.00 | 0.00 | 99 | |
| 20260506222214 | 43 | 280 | 25.2 | 0.0 | 0.00 | 0.00 | 0.00 | 86 | |
| 20260506211958 | 41 | 330 | 13.9 | 0.0 | 0.00 | 0.00 | 0.00 | 99 | |
| 20260506202033 | 43 | 320 | 12.2 | 0.0 | 0.00 | 0.00 | 0.00 | 86 | |
| 20260506192149 | 45 | 280 | 12.2 | 0.0 | 0.00 | 0.00 | 0.00 | 75 | |
| 20260506182047 | 45 | 300 | 20.9 | 0.0 | 0.00 | 0.00 | 0.00 | 81 | |
| 20260506172013 | 46 | 260 | 1.7 | 0.0 | 0.00 | 0.00 | 0.00 | 75 | |
| 20260506162231 | 46 | 240 | 6.1 | 0.0 | 0.00 | 0.00 | 0.00 | 81 | |
| 20260506152046 | 48 | 270 | 6.1 | 0.0 | 0.00 | 0.00 | 0.00 | 81 | |
| 20260506142026 | 46 | 310 | 6.1 | 17.4 | 0.00 | 0.00 | 0.00 | 93 | |
| 20260506132026 | 45 | 260 | 10.4 | 22.6 | 0.00 | 0.00 | 0.00 | 93 | |
| 20260506122026 | 43 | 270 | 7.8 | 20.9 | 0.00 | 0.00 | 0.00 | 99 | |
| 20260506111959 | 41 | 270 | 10.4 | 22.6 | 0.00 | 0.00 | 0.00 | 99 | |
| 20260506102200 | 41 | 250 | 17.4 | 28.7 | 0.00 | 0.00 | 0.00 | 99 | |
| 20260506081958 | 41 | 260 | 13.9 | 31.3 | 0.00 | 0.00 | 0.00 | 99 | |
| 20260506071959 | 39 | 240 | 19.1 | 37.4 | 0.00 | 0.00 | 0.00 | 99 | |
| 20260506062000 | 39 | 250 | 17.4 | 39.1 | 0.00 | 0.00 | 0.00 | 99 | |
| 20260506042158 | 41 | 250 | 19.1 | 45.2 | 0.00 | 0.00 | 0.00 | 99 |